Location: Bathurst
(33.4193°S, 149.5775°E)
Time: 22:25:47
(UTC+10:00)

Vanguard 3 - Pass Details

Date: 24 June 2021
Orbit: 508 x 3261 km, 33.4° (Epoch: 25 July)

Event Time Altitude Azimuth Distance (km) Brightness Sun altitude
Rises 18:09:37 0° 284° (WNW) 6,261 13.7 -13.7°
Reaches altitude 10° 18:13:16 10° 284° (WNW) 5,516 12.8 -14.4°
Maximum altitude 18:31:46 87° 10° (N) 3,269 10.1 -18.1°
Enters shadow 18:45:55 25° 96° (E) 4,758 10.4 -20.9°
